This demonstration page uses our WeatherBlox Daily Observations layout. Learn more.

Left ArrowRight Arrow

34.74481, -87.66753

Hourly Observations for May 14, 2017

Temp ( °F °C ) Dew Point ( °F °C ) Humidity (%) Winds ( mph kmh ) Pressure ( in mb ) Visibility ( mi km ) Precip ( " mm )
12:53 am 00:53 Clear 56 13.3 50 10 81 81 Calm 29.93 1013 10 16 0.00 0.00
1:53 am 01:53 Clear 55 12.8 49 9.4 80 80 Calm 29.93 1014 10 16 0.00 0.00
2:53 am 02:53 Clear 52 11.1 48 8.9 86 86 Calm 29.93 1014 10 16 0.00 0.00
3:53 am 03:53 Clear 51 10.6 47 8.3 86 86 Calm 29.94 1014 10 16 0.00 0.00
4:53 am 04:53 Clear 50 10 47 8.3 89 89 Calm 29.95 1014 8 13 0.00 0.00
5:53 am 05:53 Sunny 50 10 47 8.3 89 89 Calm 29.97 1015 8 13 0.00 0.00
6:53 am 06:53 Sunny 55 12.8 51 10.6 87 87 Calm 29.99 1016 10 16 0.00 0.00
7:53 am 07:53 Sunny 62 16.7 55 12.8 78 78 Calm 30.02 1017 10 16 0.00 0.00
8:53 am 08:53 Sunny 67 19.4 53 11.7 61 61 Calm 30.03 1017 10 16 0.00 0.00
9:53 am 09:53 Sunny 72 22.2 52 11.1 50 50 Calm 30.03 1017 10 16 0.00 0.00
10:53 am 10:53 Sunny 76 24.4 50 10 40 40 E 6 9 30.03 1017 10 16 0.00 0.00
11:53 am 11:53 Sunny 79 26.1 50 10 36 36 SE 6 9 30.03 1017 10 16 0.00 0.00
12:53 pm 12:53 Sunny 80 26.7 50 10 35 35 VRB 5 7 30.01 1016 10 16 0.00 0.00
1:53 pm 13:53 Sunny 82 27.8 52 11.1 35 35 Calm 29.99 1016 10 16 0.00 0.00
2:53 pm 14:53 Sunny 84 28.9 53 11.7 34 34 N 7 11 29.97 1015 10 16 0.00 0.00
3:53 pm 15:53 Sunny 85 29.4 54 12.2 35 35 NNW 6 9 29.95 1014 10 16 0.00 0.00
4:53 pm 16:53 Sunny 84 28.9 54 12.2 36 36 VRB 6 9 29.94 1014 10 16 0.00 0.00
5:53 pm 17:53 Sunny 82 27.8 53 11.7 37 37 Calm 29.93 1014 10 16 0.00 0.00
6:53 pm 18:53 Sunny 81 27.2 55 12.8 41 41 Calm 29.92 1013 10 16 0.00 0.00
7:53 pm 19:53 Clear 70 21.1 61 16.1 73 73 Calm 29.93 1014 10 16 0.00 0.00
8:53 pm 20:53 Clear 69 20.6 59 15 70 70 Calm 29.93 1014 10 16 0.00 0.00
9:53 pm 21:53 Clear 65 18.3 58 14.4 78 78 Calm 29.96 1014 10 16 0.00 0.00
10:53 pm 22:53 Clear 64 17.8 57 13.9 78 78 Calm 29.97 1015 10 16 0.00 0.00
11:53 pm 23:53 Clear 63 17.2 58 14.4 84 84 Calm 29.98 1015 10 16 0.00 0.00

Powered by AerisWeather